Location: Bakov nad Jizerou
(50.4784°N, 14.9394°E)
Time: 09:31:10
(UTC+00:00)

Iridium 2 - Pass Details

Date: 16 June 2021
Orbit: 502 x 511 km, 85.5° (Epoch: 04 August)

Event Time Altitude Azimuth Distance (km) Brightness Sun altitude
Exits shadow 21:48:07 26° 152° (SSE) 1,017 4.6 -14.4°
Maximum altitude 21:49:53 49° 90° (E) 659 4.1 -14.5°
Drops below altitude 10° 21:53:33 10° 15° (NNE) 1,730 7.3 -14.6°
Sets 21:55:42 0° 10° (N) 2,619 8.5 -14.7°
